TimeHDT,TemperatureF,Dew PointF,Humidity,Sea Level PressureIn,VisibilityMPH,Wind Direction,Wind SpeedMPH,Gust SpeedMPH,PrecipitationIn,Events,Conditions,WindDirDegrees,DateUTC
12:01 AM,45.0,42.1,90,30.04,7.0,North,-9999.0,-,0.23,Rain,Light Rain,0,2012-10-02 09:01:00
12:14 AM,46.4,42.8,87,29.75,7.0,North,-9999.0,-,0.03,Rain,Rain,0,2012-10-02 09:14:00
1:01 AM,44.6,42.8,93,29.72,4.0,North,-9999.0,-,0.11,Rain,Light Rain,0,2012-10-02 10:01:00
1:30 AM,44.6,42.8,93,29.69,4.0,North,-9999.0,-,0.19,Rain,Light Rain,0,2012-10-02 10:30:00
2:01 AM,45.0,43.0,93,29.94,5.0,North,-9999.0,-,0.24,Rain,Light Rain,0,2012-10-02 11:01:00
3:01 AM,46.0,44.1,93,29.90,3.0,North,-9999.0,-,0.04,Rain,Light Rain,0,2012-10-02 12:01:00
4:01 AM,46.9,45.0,93,29.86,4.0,North,-9999.0,-,0.14,Rain,Rain,0,2012-10-02 13:01:00
5:01 AM,46.9,45.0,93,29.82,4.0,North,-9999.0,-,0.18,Rain,Light Rain,0,2012-10-02 14:01:00
6:01 AM,46.9,45.0,93,29.83,5.0,North,-9999.0,-,0.11,Rain,Light Rain,0,2012-10-02 15:01:00
6:17 AM,46.4,44.6,93,29.55,2.5,North,-9999.0,-,0.01,Rain,Light Rain,0,2012-10-02 15:17:00
6:29 AM,46.4,44.6,93,29.55,4.0,North,-9999.0,-,0.01,Rain,Light Rain,0,2012-10-02 15:29:00
7:01 AM,48.0,46.0,93,29.82,8.0,North,-9999.0,-,0.02,Rain,Light Rain,0,2012-10-02 16:01:00
7:28 AM,48.2,44.6,87,29.56,10.0,North,-9999.0,-,0.00,,Mostly Cloudy,0,2012-10-02 16:28:00
7:46 AM,48.2,44.6,87,29.58,10.0,North,-9999.0,-,0.00,,Partly Cloudy,0,2012-10-02 16:46:00
8:01 AM,48.0,43.0,83,29.87,10.0,North,-9999.0,-,0.00,,Mostly Cloudy,0,2012-10-02 17:01:00
8:37 AM,46.4,44.6,93,29.61,10.0,North,-9999.0,-,N/A,,Partly Cloudy,0,2012-10-02 17:37:00
9:01 AM,46.9,45.0,93,29.91,10.0,North,-9999.0,-,N/A,,Mostly Cloudy,0,2012-10-02 18:01:00
9:12 AM,46.4,46.4,100,29.64,10.0,North,-9999.0,-,N/A,,Mostly Cloudy,0,2012-10-02 18:12:00
9:46 AM,46.4,46.4,100,29.66,10.0,North,-9999.0,-,N/A,,Overcast,0,2012-10-02 18:46:00
10:01 AM,48.0,46.0,93,29.95,10.0,North,-9999.0,-,N/A,,Overcast,0,2012-10-02 19:01:00
10:37 AM,48.2,46.4,93,29.68,10.0,North,-9999.0,-,N/A,,Overcast,0,2012-10-02 19:37:00
10:47 AM,48.2,46.4,93,29.69,9.0,North,-9999.0,-,N/A,,Overcast,0,2012-10-02 19:47:00
10:59 AM,48.2,46.4,93,29.70,8.0,North,-9999.0,-,N/A,,Overcast,0,2012-10-02 19:59:00
11:01 AM,48.0,46.0,93,29.97,8.0,North,-9999.0,-,N/A,,Overcast,0,2012-10-02 20:01:00
11:19 AM,48.2,46.4,93,29.70,6.0,North,-9999.0,-,N/A,,Overcast,0,2012-10-02 20:19:00
11:42 AM,48.2,46.4,93,29.71,8.0,North,-9999.0,-,N/A,,Overcast,0,2012-10-02 20:42:00
12:01 PM,48.9,45.0,86,30.00,9.0,North,-9999.0,-,N/A,,Overcast,0,2012-10-02 21:01:00
12:11 PM,48.2,44.6,87,29.72,8.0,North,-9999.0,-,N/A,,Overcast,0,2012-10-02 21:11:00
12:36 PM,48.2,44.6,87,29.73,10.0,North,-9999.0,-,N/A,,Mostly Cloudy,0,2012-10-02 21:36:00
1:01 PM,50.0,44.6,82,29.73,10.0,North,-9999.0,-,N/A,,Scattered Clouds,0,2012-10-02 22:01:00
2:01 PM,53.1,44.1,71,30.01,10.0,North,-9999.0,-,N/A,,Partly Cloudy,0,2012-10-02 23:01:00
3:01 PM,52.0,46.9,83,30.02,10.0,North,-9999.0,-,N/A,,Partly Cloudy,0,2012-10-03 00:01:00
4:01 PM,48.9,45.0,86,30.04,10.0,North,-9999.0,-,N/A,,Partly Cloudy,0,2012-10-03 01:01:00
4:26 PM,48.2,44.6,87,29.74,10.0,North,-9999.0,-,N/A,,Mostly Cloudy,0,2012-10-03 01:26:00
4:47 PM,48.2,44.6,87,29.74,10.0,North,-9999.0,-,N/A,,Scattered Clouds,0,2012-10-03 01:47:00
5:01 PM,48.0,44.1,86,30.05,10.0,North,-9999.0,-,N/A,,Scattered Clouds,0,2012-10-03 02:01:00
5:12 PM,48.2,44.6,87,29.78,10.0,North,-9999.0,-,N/A,,Mostly Cloudy,0,2012-10-03 02:12:00
6:01 PM,46.9,44.1,90,30.06,4.0,North,-9999.0,-,0.00,Rain,Light Rain,0,2012-10-03 03:01:00
7:01 PM,46.0,44.1,93,30.04,10.0,North,-9999.0,-,0.00,,Overcast,0,2012-10-03 04:01:00
7:23 PM,46.4,44.6,93,29.77,2.5,North,-9999.0,-,0.00,Rain,Light Rain,0,2012-10-03 04:23:00
7:32 PM,46.4,44.6,93,29.77,3.0,North,-9999.0,-,0.00,Rain,Light Rain,0,2012-10-03 04:32:00
8:01 PM,46.0,44.1,93,30.03,10.0,North,-9999.0,-,0.00,,Mostly Cloudy,0,2012-10-03 05:01:00
8:13 PM,46.4,44.6,93,29.75,10.0,North,-9999.0,-,N/A,,Overcast,0,2012-10-03 05:13:00
8:23 PM,46.4,44.6,93,29.75,10.0,North,-9999.0,-,N/A,,Mostly Cloudy,0,2012-10-03 05:23:00
8:30 PM,46.4,44.6,93,29.76,10.0,North,-9999.0,-,N/A,,Mostly Cloudy,0,2012-10-03 05:30:00
8:51 PM,46.4,44.6,93,29.76,10.0,North,-9999.0,-,N/A,,Mostly Cloudy,0,2012-10-03 05:51:00
9:01 PM,46.0,44.1,93,30.03,10.0,North,-9999.0,-,N/A,,Mostly Cloudy,0,2012-10-03 06:01:00
10:01 PM,46.9,45.0,93,30.04,4.0,North,-9999.0,-,0.00,Rain,Light Rain,0,2012-10-03 07:01:00
11:01 PM,46.9,46.0,97,30.03,4.0,North,-9999.0,-,0.03,Rain,Light Rain,0,2012-10-03 08:01:00
11:25 PM,48.2,46.4,93,29.74,4.0,North,-9999.0,-,0.02,Rain,Light Rain,0,2012-10-03 08:25:00